CPA494 VHHH-RCTP

Flight info

Callsign CPA494
Flight time 1h 9m
Altitude 37000
Route DALOL V631 ENVAR M750 EXTRA/N0494F290 M750 TONGA TONGA1A
Aircraft B77W/H-SDE1E2E3FGHIJ2J3J4J5M1RWXY/LB1D1

Departure

Time 2026-05-06 02:30
Airport Hong Kong International Airport (VHHH)

Arrival

Time 2026-05-06 03:39
Airport Taiwan Taoyuan International Airport (RCTP)
Time Latitude Longitude Altitude Speed Heading
2026-05-06 02:10 22.30986 113.92677 38 ft 0 kts 297°
2026-05-06 02:16 22.30981 113.92687 38 ft 2 kts 297°
2026-05-06 02:16 22.30974 113.92703 38 ft 2 kts 297°
2026-05-06 02:16 22.30967 113.92716 38 ft 2 kts 297°
2026-05-06 02:17 22.30963 113.92725 38 ft 2 kts 295°
2026-05-06 02:17 22.30959 113.92741 38 ft 2 kts 275°
2026-05-06 02:17 22.30959 113.92757 38 ft 2 kts 257°
2026-05-06 02:17 22.30964 113.92771 38 ft 2 kts 240°
2026-05-06 02:18 22.30973 113.92784 38 ft 2 kts 224°
2026-05-06 02:18 22.30984 113.92794 38 ft 1 kts 206°
2026-05-06 02:18 22.30989 113.92796 38 ft 0 kts 204°
2026-05-06 02:20 22.30974 113.92789 38 ft 4 kts 205°
2026-05-06 02:20 22.30942 113.92772 38 ft 5 kts 206°
2026-05-06 02:21 22.30900 113.92750 38 ft 7 kts 206°
2026-05-06 02:21 22.30854 113.92722 38 ft 8 kts 222°
2026-05-06 02:21 22.30823 113.92667 38 ft 9 kts 249°
2026-05-06 02:21 22.30801 113.92598 38 ft 10 kts 251°
2026-05-06 02:22 22.30777 113.92523 38 ft 10 kts 251°
2026-05-06 02:22 22.30750 113.92445 38 ft 11 kts 250°
2026-05-06 02:22 22.30723 113.92359 38 ft 12 kts 251°
2026-05-06 02:22 22.30694 113.92271 38 ft 12 kts 250°
2026-05-06 02:23 22.30694 113.92182 38 ft 12 kts 308°
2026-05-06 02:23 22.30772 113.92137 38 ft 13 kts 340°
2026-05-06 02:23 22.30871 113.92099 38 ft 15 kts 340°
2026-05-06 02:23 22.30983 113.92058 38 ft 17 kts 341°
2026-05-06 02:24 22.31107 113.92012 38 ft 19 kts 341°
2026-05-06 02:24 22.31240 113.91962 38 ft 20 kts 341°
2026-05-06 02:24 22.31382 113.91911 38 ft 16 kts 341°
2026-05-06 02:24 22.31492 113.91870 38 ft 17 kts 341°
2026-05-06 02:25 22.31543 113.91776 38 ft 16 kts 257°
2026-05-06 02:25 22.31506 113.91652 38 ft 19 kts 250°
2026-05-06 02:25 22.31457 113.91502 38 ft 23 kts 251°
2026-05-06 02:25 22.31399 113.91324 38 ft 27 kts 250°
2026-05-06 02:26 22.31336 113.91129 38 ft 26 kts 250°
2026-05-06 02:26 22.31274 113.90943 38 ft 25 kts 251°
2026-05-06 02:26 22.31216 113.90761 38 ft 25 kts 251°
2026-05-06 02:26 22.31159 113.90585 38 ft 24 kts 251°
2026-05-06 02:27 22.31105 113.90410 38 ft 24 kts 251°
2026-05-06 02:27 22.31049 113.90240 38 ft 23 kts 251°
2026-05-06 02:27 22.30997 113.90074 38 ft 23 kts 251°
2026-05-06 02:27 22.30946 113.89919 38 ft 20 kts 251°
2026-05-06 02:28 22.30924 113.89823 38 ft 11 kts 285°
2026-05-06 02:28 22.30986 113.89773 38 ft 11 kts 339°
2026-05-06 02:28 22.31059 113.89763 38 ft 7 kts 23°
2026-05-06 02:28 22.31088 113.89795 38 ft 5 kts 63°
2026-05-06 02:29 22.31092 113.89805 38 ft 0 kts 68°
2026-05-06 02:29 22.31114 113.89865 38 ft 39 kts 70°
2026-05-06 02:29 22.31317 113.90495 38 ft 133 kts 71°
2026-05-06 02:29 22.31670 113.91616 468 ft 173 kts 72°
2026-05-06 02:30 22.32060 113.92913 1393 ft 190 kts 73°
2026-05-06 02:30 22.32467 113.94212 2446 ft 191 kts 73°
2026-05-06 02:30 22.32917 113.95614 3178 ft 209 kts 71°
2026-05-06 02:30 22.33436 113.97107 4047 ft 218 kts 73°
2026-05-06 02:31 22.33704 113.98722 4853 ft 229 kts 84°
2026-05-06 02:31 22.33932 114.00478 5564 ft 248 kts 82°
2026-05-06 02:31 22.34227 114.02393 6297 ft 268 kts 82°
2026-05-06 02:31 22.34443 114.04399 7223 ft 277 kts 94°
2026-05-06 02:32 22.33828 114.06431 7752 ft 299 kts 127°
2026-05-06 02:32 22.32387 114.07942 8885 ft 296 kts 146°
2026-05-06 02:32 22.30494 114.08932 9571 ft 310 kts 170°
2026-05-06 02:32 22.28409 114.09013 10756 ft 302 kts 188°
2026-05-06 02:33 22.26321 114.08829 11925 ft 303 kts 187°
2026-05-06 02:33 22.24900 114.08742 12436 ft 314 kts 185°
2026-05-06 02:33 22.19516 114.09485 14236 ft 359 kts 164°
2026-05-06 02:34 22.17141 114.10566 15032 ft 378 kts 154°
2026-05-06 02:34 22.14922 114.12122 15820 ft 395 kts 143°
2026-05-06 02:34 22.12864 114.14238 16590 ft 412 kts 131°
2026-05-06 02:34 22.11185 114.16808 17315 ft 427 kts 119°
2026-05-06 02:35 22.09908 114.19760 18130 ft 439 kts 112°
2026-05-06 02:35 22.08696 114.22768 19045 ft 445 kts 116°
2026-05-06 02:35 22.07079 114.25652 19934 ft 452 kts 127°
2026-05-06 02:35 22.05031 114.28214 20796 ft 458 kts 136°
2026-05-06 02:36 22.02584 114.30423 21613 ft 465 kts 144°
2026-05-06 02:36 21.99952 114.32474 22477 ft 471 kts 145°
2026-05-06 02:36 21.97279 114.34543 23320 ft 478 kts 145°
2026-05-06 02:36 21.94556 114.36659 24179 ft 483 kts 145°
2026-05-06 02:37 21.91829 114.38785 25013 ft 489 kts 145°
2026-05-06 02:37 21.89133 114.41071 25773 ft 497 kts 138°
2026-05-06 02:37 21.86727 114.43811 26556 ft 505 kts 129°
2026-05-06 02:37 21.84723 114.46918 27350 ft 512 kts 120°
2026-05-06 02:38 21.83153 114.50324 28093 ft 518 kts 112°
2026-05-06 02:38 21.82009 114.54070 28824 ft 524 kts 104°
2026-05-06 02:38 21.81081 114.57846 29611 ft 529 kts 104°
2026-05-06 02:38 21.80148 114.61658 30620 ft 529 kts 104°
2026-05-06 02:39 21.79198 114.65488 31727 ft 526 kts 105°
2026-05-06 02:39 21.78257 114.69237 32722 ft 524 kts 105°
2026-05-06 02:39 21.77308 114.72984 33602 ft 525 kts 105°
2026-05-06 02:39 21.76341 114.76775 34494 ft 524 kts 105°
2026-05-06 02:40 21.75372 114.80554 35476 ft 521 kts 105°
2026-05-06 02:40 21.74616 114.84306 36427 ft 515 kts 97°
2026-05-06 02:40 21.74334 114.88159 36943 ft 517 kts 89°
2026-05-06 02:41 21.74323 114.95918 36980 ft 514 kts 88°
2026-05-06 02:41 21.74338 115.03677 36980 ft 514 kts 88°
2026-05-06 02:42 21.74343 115.11416 36979 ft 514 kts 88°
2026-05-06 02:42 21.74339 115.19115 36982 ft 514 kts 88°
2026-05-06 02:43 21.74329 115.26808 36984 ft 515 kts 88°
2026-05-06 02:43 21.74314 115.34578 36982 ft 514 kts 88°
2026-05-06 02:44 21.74295 115.42240 36981 ft 515 kts 88°
2026-05-06 02:44 21.74272 115.49980 36989 ft 515 kts 88°
2026-05-06 02:45 21.74245 115.57728 36985 ft 515 kts 88°
2026-05-06 02:45 21.74216 115.65466 36984 ft 515 kts 88°
2026-05-06 02:46 21.74186 115.73128 36978 ft 515 kts 88°
2026-05-06 02:46 21.74151 115.80853 36977 ft 516 kts 88°
2026-05-06 02:47 21.74113 115.88542 36982 ft 517 kts 88°
2026-05-06 02:47 21.74071 115.96241 36984 ft 515 kts 88°
2026-05-06 02:48 21.74026 116.03926 36980 ft 516 kts 88°
2026-05-06 02:48 21.73977 116.11609 36981 ft 516 kts 88°
2026-05-06 02:49 21.73925 116.19344 36981 ft 517 kts 88°
2026-05-06 02:49 21.73869 116.27052 36981 ft 517 kts 88°
2026-05-06 02:50 21.73809 116.34796 36983 ft 518 kts 88°
2026-05-06 02:50 21.73745 116.42496 36981 ft 518 kts 88°
2026-05-06 02:51 21.73678 116.50259 36987 ft 518 kts 88°
2026-05-06 02:51 21.73607 116.58016 36983 ft 518 kts 88°
2026-05-06 02:52 21.73533 116.65754 36983 ft 519 kts 89°
2026-05-06 02:52 21.73457 116.73519 36976 ft 520 kts 88°
2026-05-06 02:53 21.74464 116.81145 36978 ft 514 kts 70°
2026-05-06 02:53 21.76979 116.88428 36976 ft 511 kts 65°
2026-05-06 02:54 21.79616 116.95679 36988 ft 512 kts 65°
2026-05-06 02:54 21.82221 117.02866 36986 ft 513 kts 65°
2026-05-06 02:55 21.84832 117.10091 36990 ft 512 kts 65°
2026-05-06 02:55 21.87469 117.17403 36984 ft 514 kts 65°
2026-05-06 02:56 21.90065 117.24616 36985 ft 513 kts 65°
2026-05-06 02:56 21.92657 117.31828 36988 ft 514 kts 65°
2026-05-06 02:57 21.95267 117.39107 36983 ft 513 kts 65°
2026-05-06 02:57 21.97865 117.46360 36986 ft 515 kts 65°
2026-05-06 02:58 22.01062 117.53347 36993 ft 508 kts 54°
2026-05-06 02:58 22.04792 117.59916 36981 ft 507 kts 53°
2026-05-06 02:59 22.08529 117.66492 36977 ft 508 kts 54°
2026-05-06 02:59 22.12240 117.73033 36979 ft 508 kts 54°
2026-05-06 03:00 22.15972 117.79622 36979 ft 507 kts 54°
2026-05-06 03:00 22.19678 117.86174 36978 ft 509 kts 54°
2026-05-06 03:01 22.23350 117.92676 36978 ft 508 kts 54°
2026-05-06 03:01 22.27027 117.99193 36979 ft 508 kts 54°
2026-05-06 03:02 22.30739 118.05630 36977 ft 508 kts 53°
2026-05-06 03:02 22.34533 118.12116 36976 ft 507 kts 53°
2026-05-06 03:03 22.38275 118.18527 36980 ft 508 kts 53°
2026-05-06 03:03 22.42013 118.24999 36981 ft 508 kts 54°
2026-05-06 03:04 22.45712 118.31536 36979 ft 508 kts 53°
2026-05-06 03:04 22.49381 118.38024 36980 ft 510 kts 53°
2026-05-06 03:05 22.53058 118.44533 36985 ft 507 kts 53°
2026-05-06 03:05 22.56750 118.51072 36983 ft 509 kts 53°
2026-05-06 03:06 22.60510 118.57681 36984 ft 507 kts 53°
2026-05-06 03:06 22.64263 118.64267 36987 ft 508 kts 53°
2026-05-06 03:07 22.67982 118.70802 36979 ft 508 kts 53°
2026-05-06 03:07 22.71232 118.76524 36977 ft 508 kts 53°
2026-05-06 03:08 22.74935 118.83048 36983 ft 508 kts 53°
2026-05-06 03:08 22.78622 118.89554 36977 ft 508 kts 53°
2026-05-06 03:09 22.82316 118.96081 36983 ft 508 kts 53°
2026-05-06 03:09 22.86013 119.02621 36991 ft 507 kts 53°
2026-05-06 03:10 22.89681 119.09117 36983 ft 509 kts 53°
2026-05-06 03:10 22.93370 119.15662 36984 ft 507 kts 53°
2026-05-06 03:11 22.97043 119.22182 36987 ft 509 kts 53°
2026-05-06 03:11 23.00723 119.28726 36981 ft 508 kts 53°
2026-05-06 03:12 23.04430 119.35328 36988 ft 506 kts 53°
2026-05-06 03:12 23.08145 119.41949 36986 ft 509 kts 53°
2026-05-06 03:13 23.11894 119.48641 36993 ft 506 kts 53°
2026-05-06 03:13 23.15680 119.55233 36984 ft 504 kts 48°
2026-05-06 03:14 23.20546 119.60596 36994 ft 490 kts 30°
2026-05-06 03:14 23.26348 119.64495 37000 ft 479 kts 23°
2026-05-06 03:15 23.32266 119.68232 36985 ft 480 kts 24°
2026-05-06 03:15 23.38123 119.71928 36986 ft 480 kts 23°
2026-05-06 03:16 23.44007 119.75643 36984 ft 479 kts 23°
2026-05-06 03:16 23.49767 119.79318 36988 ft 480 kts 25°
2026-05-06 03:17 23.55422 119.83228 36735 ft 475 kts 26°
2026-05-06 03:17 23.58227 119.85173 35927 ft 476 kts 26°
2026-05-06 03:17 23.60991 119.87083 35088 ft 477 kts 26°
2026-05-06 03:17 23.63827 119.89044 34230 ft 478 kts 26°
2026-05-06 03:18 23.66612 119.90968 33400 ft 478 kts 26°
2026-05-06 03:18 23.69437 119.92921 32566 ft 478 kts 26°
2026-05-06 03:18 23.72229 119.94850 31686 ft 478 kts 26°
2026-05-06 03:18 23.75025 119.96782 30815 ft 478 kts 26°
2026-05-06 03:19 23.77810 119.98708 30245 ft 471 kts 27°
2026-05-06 03:19 23.80549 120.00607 29786 ft 462 kts 27°
2026-05-06 03:19 23.83235 120.02467 29277 ft 454 kts 27°
2026-05-06 03:19 23.85950 120.04346 28738 ft 447 kts 27°
2026-05-06 03:20 23.91170 120.07960 27693 ft 447 kts 26°
2026-05-06 03:20 23.93849 120.09810 27123 ft 454 kts 27°
2026-05-06 03:20 23.96531 120.11669 26556 ft 452 kts 27°
2026-05-06 03:21 23.99213 120.13532 26008 ft 448 kts 27°
2026-05-06 03:21 24.01826 120.15345 25439 ft 446 kts 27°
2026-05-06 03:21 24.04479 120.17188 24870 ft 444 kts 27°
2026-05-06 03:21 24.07079 120.18993 24300 ft 442 kts 27°
2026-05-06 03:22 24.09714 120.20824 23723 ft 440 kts 27°
2026-05-06 03:22 24.12380 120.22678 23150 ft 438 kts 27°
2026-05-06 03:22 24.15035 120.24526 22563 ft 437 kts 27°
2026-05-06 03:22 24.17687 120.26372 21955 ft 434 kts 27°
2026-05-06 03:23 24.20222 120.28137 21386 ft 431 kts 27°
2026-05-06 03:23 24.22759 120.29906 20804 ft 427 kts 27°
2026-05-06 03:23 24.25280 120.31664 20223 ft 423 kts 27°
2026-05-06 03:23 24.27770 120.33400 19638 ft 420 kts 27°
2026-05-06 03:24 24.30212 120.35104 19071 ft 417 kts 27°
2026-05-06 03:24 24.32682 120.36828 18479 ft 414 kts 28°
2026-05-06 03:24 24.35124 120.38533 17913 ft 410 kts 28°
2026-05-06 03:24 24.37524 120.40210 17324 ft 407 kts 28°
2026-05-06 03:25 24.39929 120.41891 16765 ft 404 kts 28°
2026-05-06 03:25 24.42293 120.43544 16192 ft 402 kts 28°
2026-05-06 03:25 24.44646 120.45190 15595 ft 401 kts 28°
2026-05-06 03:25 24.47009 120.46843 15030 ft 399 kts 29°
2026-05-06 03:26 24.49324 120.48465 14453 ft 398 kts 29°
2026-05-06 03:26 24.51663 120.50103 13853 ft 396 kts 29°
2026-05-06 03:26 24.53981 120.51727 13250 ft 394 kts 30°
2026-05-06 03:26 24.56265 120.53329 12713 ft 392 kts 30°
2026-05-06 03:27 24.58552 120.54933 12122 ft 389 kts 30°
2026-05-06 03:27 24.60823 120.56528 11532 ft 387 kts 30°
2026-05-06 03:27 24.63074 120.58108 10976 ft 383 kts 30°
2026-05-06 03:27 24.65301 120.59673 10708 ft 371 kts 30°
2026-05-06 03:28 24.67398 120.61218 10597 ft 356 kts 36°
2026-05-06 03:28 24.69248 120.62949 10448 ft 343 kts 39°
2026-05-06 03:28 24.71006 120.64675 10333 ft 331 kts 39°
2026-05-06 03:28 24.72697 120.66341 10193 ft 320 kts 40°
2026-05-06 03:29 24.74329 120.67947 10059 ft 310 kts 40°
2026-05-06 03:29 24.75906 120.69498 9782 ft 307 kts 39°
2026-05-06 03:29 24.77517 120.71080 9344 ft 309 kts 40°
2026-05-06 03:29 24.79113 120.72649 8912 ft 310 kts 40°
2026-05-06 03:30 24.80725 120.74236 8650 ft 303 kts 40°
2026-05-06 03:30 24.82287 120.75775 8267 ft 304 kts 40°
2026-05-06 03:30 24.83870 120.77333 7838 ft 303 kts 40°
2026-05-06 03:30 24.85417 120.78858 7494 ft 295 kts 40°
2026-05-06 03:31 24.86927 120.80347 7106 ft 287 kts 40°
2026-05-06 03:31 24.88388 120.81787 6766 ft 278 kts 40°
2026-05-06 03:31 24.89809 120.83189 6476 ft 274 kts 40°
2026-05-06 03:31 24.91109 120.84715 6110 ft 276 kts 58°
2026-05-06 03:32 24.91732 120.86703 5745 ft 276 kts 85°
2026-05-06 03:32 24.91746 120.88801 5427 ft 276 kts 94°
2026-05-06 03:32 24.91641 120.90912 5126 ft 276 kts 94°
2026-05-06 03:32 24.91529 120.93002 4802 ft 276 kts 94°
2026-05-06 03:33 24.91421 120.95104 4411 ft 269 kts 94°
2026-05-06 03:33 24.91319 120.97113 4198 ft 256 kts 94°
2026-05-06 03:33 24.91225 120.99000 4148 ft 235 kts 94°
2026-05-06 03:33 24.91136 121.00750 4096 ft 225 kts 94°
2026-05-06 03:34 24.91114 121.02457 4055 ft 224 kts 81°
2026-05-06 03:34 24.91713 121.03999 3918 ft 218 kts 57°
2026-05-06 03:34 24.92616 121.05276 3744 ft 206 kts 50°
2026-05-06 03:34 24.93539 121.06448 3596 ft 196 kts 49°
2026-05-06 03:35 24.94416 121.07568 3445 ft 195 kts 51°
2026-05-06 03:35 24.95265 121.08740 3206 ft 191 kts 50°
2026-05-06 03:35 24.96111 121.09830 2979 ft 187 kts 49°
2026-05-06 03:35 24.96971 121.10901 2747 ft 182 kts 48°
2026-05-06 03:36 24.97793 121.11924 2518 ft 178 kts 48°
2026-05-06 03:36 24.98600 121.12936 2289 ft 169 kts 48°
2026-05-06 03:36 24.99346 121.13872 2066 ft 155 kts 48°
2026-05-06 03:36 25.00028 121.14729 1887 ft 143 kts 48°
2026-05-06 03:37 25.00685 121.15557 1702 ft 140 kts 48°
2026-05-06 03:37 25.01326 121.16364 1522 ft 139 kts 48°
2026-05-06 03:37 25.01966 121.17172 1342 ft 139 kts 47°
2026-05-06 03:37 25.02617 121.17979 1152 ft 140 kts 48°
2026-05-06 03:38 25.03248 121.18780 959 ft 140 kts 47°
2026-05-06 03:38 25.03898 121.19597 791 ft 142 kts 47°
2026-05-06 03:38 25.04542 121.20414 622 ft 143 kts 48°
2026-05-06 03:38 25.05186 121.21230 451 ft 142 kts 47°
2026-05-06 03:39 25.05854 121.22070 235 ft 144 kts 46°
2026-05-06 03:39 25.06502 121.22884 124 ft 134 kts 47°
2026-05-06 03:39 25.07028 121.23550 122 ft 94 kts 49°
2026-05-06 03:39 25.07353 121.23963 122 ft 38 kts 49°
2026-05-06 03:40 25.07519 121.24131 122 ft 26 kts 30°
2026-05-06 03:40 25.07636 121.24197 122 ft 17 kts 21°
2026-05-06 03:40 25.07733 121.24232 122 ft 11 kts 20°
2026-05-06 03:40 25.07812 121.24264 122 ft 12 kts 14°
2026-05-06 03:41 25.07893 121.24249 122 ft 12 kts 326°
2026-05-06 03:41 25.07959 121.24185 122 ft 12 kts 306°
2026-05-06 03:41 25.07968 121.24116 122 ft 7 kts 248°
2026-05-06 03:41 25.07950 121.24062 122 ft 5 kts 279°
2026-05-06 03:42 25.07966 121.24026 122 ft 3 kts 306°
2026-05-06 03:42 25.07989 121.24004 122 ft 3 kts 320°
2026-05-06 03:42 25.08006 121.23988 122 ft 1 kts 319°
2026-05-06 03:42 25.08014 121.23981 122 ft 1 kts 319°
2026-05-06 03:43 25.08018 121.23977 122 ft 0 kts 319°